Location: Albany
(42.6526°N, 73.7562°W)
Time: 21:48:22
(UTC+00:00)

Lacrosse 4 Rocket - Pass Details

Date: 19 November 2019
Orbit: 543 x 616 km, 68.0° (Epoch: 12 December)

Event Time Altitude Azimuth Distance (km) Brightness Sun altitude
Rises 23:27:12 0° 254° (WSW) 2,709 6.3 -21.5°
Reaches altitude 10° 23:30:15 10° 279° (W) 1,814 5.0 -22.1°
Maximum altitude 23:32:34 15° 314° (NW) 1,533 4.0 -22.5°
Drops below altitude 10° 23:34:54 10° 349° (N) 1,816 4.0 -23.0°
Enters shadow 23:35:32 - 356° (N) 1,968 4.1 -23.1°
